When you browse on this site, cookies collect data to enhance your experience and personalize the content and advertising you see.
Visit our Privacy Policy to learn more. By continuing to use the site, you agree to this use of cookies and data.

Hourly Weather Hrazdan

Today, 10 August, Monday

Time Temperature Precipitation Wind Pressure Humidity
00:00 +15°C° 0 mm 2 mps 610 mmHg 71%
01:00 +15°C° 0 mm 2 mps 610 mmHg 70%
02:00 +15°C° 0 mm 2 mps 610 mmHg 70%
03:00 +15°C° 0 mm 2 mps 610 mmHg 71%
04:00 +15°C° 0 mm 2 mps 610 mmHg 71%
05:00 +15°C° 0 mm 2 mps 611 mmHg 72%
06:00 +15°C° 0 mm 2 mps 611 mmHg 72%
07:00 +17°C° 0 mm 2 mps 612 mmHg 66%
08:00 +19°C° 0 mm 2 mps 612 mmHg 60%
09:00 +21°C° 0 mm 2 mps 613 mmHg 53%
10:00 +23°C° 0 mm 2 mps 613 mmHg 51%
11:00 +24°C° 0 mm 2 mps 613 mmHg 48%
12:00 +25°C° 0 mm 3 mps 614 mmHg 46%
13:00 +26°C° 0 mm 3 mps 613 mmHg 46%
14:00 +26°C° 0 mm 3 mps 613 mmHg 47%
15:00 +26°C° 0 mm 3 mps 612 mmHg 47%
16:00 +25°C° 0.2 mm 3 mps 612 mmHg 53%
17:00 +24°C° 0.2 mm 3 mps 612 mmHg 59%
18:00 +22°C° 0.2 mm 3 mps 612 mmHg 66%
19:00 +20°C° 0.1 mm 3 mps 611 mmHg 71%
20:00 +18°C° 0.1 mm 3 mps 611 mmHg 76%
21:00 +16°C° 0.1 mm 3 mps 611 mmHg 82%
22:00 +16°C° 0 mm 3 mps 611 mmHg 82%
23:00 +14°C° 0 mm 3 mps 611 mmHg 83%

Tomorrow, 11 August, Tuesday

Time Temperature Precipitation Wind Pressure Humidity
00:00 +15°C° 0 mm 2 mps 611 mmHg 83%
01:00 +15°C° 0 mm 2 mps 611 mmHg 84%
02:00 +15°C° 0 mm 2 mps 611 mmHg 85%
03:00 +15°C° 0 mm 2 mps 611 mmHg 86%
04:00 +14°C° 0 mm 2 mps 611 mmHg 87%
05:00 +14°C° 0 mm 2 mps 611 mmHg 89%
06:00 +14°C° 0 mm 2 mps 611 mmHg 90%
07:00 +16°C° 0 mm 2 mps 611 mmHg 84%
08:00 +17°C° 0 mm 2 mps 612 mmHg 78%
09:00 +19°C° 0 mm 2 mps 612 mmHg 72%
10:00 +20°C° 0.1 mm 2 mps 612 mmHg 70%
11:00 +21°C° 0.1 mm 2 mps 612 mmHg 67%
12:00 +23°C° 0.1 mm 2 mps 612 mmHg 65%
13:00 +22°C° 0.3 mm 3 mps 612 mmHg 64%
14:00 +22°C° 0.3 mm 3 mps 612 mmHg 63%
15:00 +24°C° 0.3 mm 3 mps 612 mmHg 62%
16:00 +21°C° 0.5 mm 3 mps 611 mmHg 66%
17:00 +20°C° 0.5 mm 3 mps 611 mmHg 71%
18:00 +19°C° 0.5 mm 3 mps 611 mmHg 75%
19:00 +18°C° 0.2 mm 3 mps 611 mmHg 79%
20:00 +17°C° 0.2 mm 3 mps 611 mmHg 84%
21:00 +15°C° 0.2 mm 2 mps 611 mmHg 88%
22:00 +15°C° 0 mm 2 mps 611 mmHg 88%
23:00 +15°C° 0 mm 2 mps 611 mmHg 89%

Day after tomorrow, 12 August, Wednesday

Time Temperature Precipitation Wind Pressure Humidity
00:00 +14°C° 0 mm 2 mps 611 mmHg 89%
01:00 +14°C° 0 mm 2 mps 611 mmHg 89%
02:00 +14°C° 0 mm 2 mps 611 mmHg 90%
03:00 +14°C° 0 mm 2 mps 611 mmHg 90%
04:00 +14°C° 0 mm 2 mps 611 mmHg 89%
05:00 +14°C° 0 mm 2 mps 611 mmHg 88%
06:00 +14°C° 0 mm 2 mps 611 mmHg 87%
07:00 +16°C° 0 mm 2 mps 612 mmHg 81%
08:00 +17°C° 0 mm 2 mps 612 mmHg 75%
09:00 +19°C° 0 mm 2 mps 613 mmHg 70%
10:00 +19°C° 0 mm 2 mps 613 mmHg 68%
11:00 +20°C° 0 mm 2 mps 613 mmHg 65%
12:00 +21°C° 0 mm 2 mps 613 mmHg 63%
13:00 +21°C° 0.2 mm 2 mps 613 mmHg 63%
14:00 +23°C° 0.2 mm 2 mps 613 mmHg 62%
15:00 +23°C° 0.2 mm 2 mps 613 mmHg 62%
16:00 +21°C° 0.4 mm 3 mps 613 mmHg 65%
17:00 +21°C° 0.4 mm 3 mps 612 mmHg 68%
18:00 +20°C° 0.4 mm 3 mps 612 mmHg 72%
19:00 +19°C° 0.1 mm 3 mps 612 mmHg 76%
20:00 +17°C° 0.1 mm 3 mps 612 mmHg 80%
21:00 +16°C° 0.1 mm 3 mps 612 mmHg 83%
22:00 +16°C° 0.3 mm 3 mps 612 mmHg 84%
23:00 +16°C° 0.3 mm 3 mps 612 mmHg 85%

13 August, Thursday

Time Temperature Precipitation Wind Pressure Humidity
00:00 +16°C° 0.3 mm 3 mps 612 mmHg 86%
01:00 +14°C° 0 mm 3 mps 612 mmHg 87%
02:00 +15°C° 0 mm 2 mps 612 mmHg 87%
03:00 +15°C° 0 mm 2 mps 611 mmHg 88%
04:00 +15°C° 0 mm 2 mps 612 mmHg 88%
05:00 +15°C° 0 mm 2 mps 612 mmHg 89%
06:00 +15°C° 0 mm 2 mps 612 mmHg 89%
07:00 +16°C° 0.1 mm 2 mps 612 mmHg 84%
08:00 +17°C° 0.1 mm 2 mps 612 mmHg 79%
09:00 +19°C° 0.1 mm 2 mps 613 mmHg 74%
10:00 +19°C° 0.7 mm 2 mps 613 mmHg 72%
11:00 +20°C° 0.7 mm 2 mps 613 mmHg 70%
12:00 +21°C° 0.7 mm 2 mps 613 mmHg 68%
13:00 +21°C° 1.2 mm 2 mps 612 mmHg 65%
14:00 +23°C° 1.2 mm 2 mps 612 mmHg 62%
15:00 +23°C° 1.2 mm 2 mps 612 mmHg 60%
16:00 +21°C° 0.8 mm 2 mps 612 mmHg 64%
17:00 +20°C° 0.8 mm 2 mps 611 mmHg 68%
18:00 +20°C° 0.8 mm 2 mps 611 mmHg 72%
19:00 +18°C° 0.2 mm 2 mps 611 mmHg 76%
20:00 +17°C° 0.2 mm 2 mps 611 mmHg 79%
21:00 +16°C° 0.2 mm 2 mps 612 mmHg 83%
22:00 +16°C° 0 mm 2 mps 611 mmHg 83%
23:00 +15°C° 0 mm 2 mps 611 mmHg 84%

14 August, Friday

Time Temperature Precipitation Wind Pressure Humidity
00:00 +15°C° 0 mm 2 mps 611 mmHg 85%
01:00 +14°C° 0.2 mm 2 mps 611 mmHg 85%
02:00 +14°C° 0.2 mm 2 mps 611 mmHg 86%
03:00 +14°C° 0.2 mm 2 mps 611 mmHg 87%
04:00 +14°C° 0 mm 2 mps 611 mmHg 87%
05:00 +14°C° 0 mm 2 mps 611 mmHg 86%
06:00 +15°C° 0 mm 2 mps 611 mmHg 86%
07:00 +16°C° 0.1 mm 2 mps 611 mmHg 82%
08:00 +17°C° 0.1 mm 2 mps 612 mmHg 78%
09:00 +18°C° 0.1 mm 2 mps 612 mmHg 74%
10:00 +19°C° 0.5 mm 2 mps 612 mmHg 72%
11:00 +19°C° 0.5 mm 2 mps 612 mmHg 69%
12:00 +20°C° 0.5 mm 2 mps 612 mmHg 66%
13:00 +20°C° 0.5 mm 3 mps 611 mmHg 65%
14:00 +21°C° 0.5 mm 3 mps 611 mmHg 65%
15:00 +21°C° 0.5 mm 3 mps 611 mmHg 64%
16:00 +20°C° 0.3 mm 3 mps 611 mmHg 67%
17:00 +19°C° 0.3 mm 3 mps 610 mmHg 69%
18:00 +18°C° 0.3 mm 3 mps 610 mmHg 72%
19:00 +17°C° 0.1 mm 3 mps 610 mmHg 74%
20:00 +16°C° 0.1 mm 3 mps 610 mmHg 77%
21:00 +13°C° 0.1 mm 3 mps 611 mmHg 80%
22:00 +14°C° 0.1 mm 2 mps 610 mmHg 81%
23:00 +14°C° 0.1 mm 2 mps 610 mmHg 82%

15 August, Saturday

Time Temperature Precipitation Wind Pressure Humidity
00:00 +13°C° 0.1 mm 2 mps 610 mmHg 84%
01:00 +13°C° 0.1 mm 2 mps 610 mmHg 84%
02:00 +13°C° 0.1 mm 2 mps 610 mmHg 84%
03:00 +13°C° 0.1 mm 2 mps 610 mmHg 84%
04:00 +13°C° 0.1 mm 2 mps 611 mmHg 84%
05:00 +13°C° 0.1 mm 2 mps 611 mmHg 83%
06:00 +13°C° 0.1 mm 2 mps 611 mmHg 83%
07:00 +14°C° 0 mm 2 mps 611 mmHg 77%
08:00 +15°C° 0 mm 2 mps 611 mmHg 72%
09:00 +16°C° 0 mm 2 mps 612 mmHg 67%
10:00 +17°C° 0.1 mm 2 mps 612 mmHg 65%
11:00 +18°C° 0.1 mm 2 mps 612 mmHg 64%
12:00 +18°C° 0.1 mm 2 mps 612 mmHg 62%
13:00 +19°C° 0.1 mm 3 mps 612 mmHg 62%
14:00 +19°C° 0.1 mm 3 mps 612 mmHg 62%
15:00 +19°C° 0.1 mm 3 mps 612 mmHg 62%
16:00 +18°C° 0 mm 3 mps 612 mmHg 65%
17:00 +18°C° 0 mm 3 mps 612 mmHg 68%
18:00 +17°C° 0 mm 3 mps 612 mmHg 71%
19:00 +16°C° 0 mm 3 mps 612 mmHg 74%
20:00 +13°C° 0 mm 3 mps 612 mmHg 78%
21:00 +13°C° 0 mm 2 mps 611 mmHg 82%
22:00 +13°C° 0 mm 2 mps 612 mmHg 83%
23:00 +13°C° 0 mm 2 mps 612 mmHg 83%
Show more